Data supplied by UK-AIR on 5/4/2008
All Data GMT hour ending 
Status: R =Ratified P=Provisional,P*=As supplied
,,Camden Kerbside,,,,,,,,,,,,,,,,,,,,,,,
Date,time,"PM10 particulate matter (Hourly measured)",status,unit,"Nitric oxide",status,unit,"Nitrogen dioxide",status,unit,"Nitrogen oxides as nitrogen dioxide",status,unit
 
01-01-1999,01:00,26,R,ugm-3 (GRAV EQ),118,R,ugm-3,25,R,ugm-3,204,R,ugm-3
01-01-1999,02:00,29,R,ugm-3 (GRAV EQ),173,R,ugm-3,25,R,ugm-3,288,R,ugm-3
01-01-1999,03:00,23,R,ugm-3 (GRAV EQ),150,R,ugm-3,29,R,ugm-3,258,R,ugm-3
01-01-1999,04:00,22,R,ugm-3 (GRAV EQ),139,R,ugm-3,27,R,ugm-3,239,R,ugm-3
01-01-1999,05:00,25,R,ugm-3 (GRAV EQ),113,R,ugm-3,29,R,ugm-3,201,R,ugm-3
01-01-1999,06:00,21,R,ugm-3 (GRAV EQ),58,R,ugm-3,32,R,ugm-3,120,R,ugm-3
01-01-1999,07:00,21,R,ugm-3 (GRAV EQ),43,R,ugm-3,44,R,ugm-3,109,R,ugm-3
01-01-1999,08:00,22,R,ugm-3 (GRAV EQ),35,R,ugm-3,44,R,ugm-3,97,R,ugm-3
01-01-1999,09:00,22,R,ugm-3 (GRAV EQ),34,R,ugm-3,44,R,ugm-3,96,R,ugm-3
01-01-1999,10:00,25,R,ugm-3 (GRAV EQ),53,R,ugm-3,48,R,ugm-3,128,R,ugm-3
01-01-1999,11:00,29,R,ugm-3 (GRAV EQ),50,R,ugm-3,40,R,ugm-3,117,R,ugm-3
01-01-1999,12:00,23,R,ugm-3 (GRAV EQ),55,R,ugm-3,36,R,ugm-3,120,R,ugm-3
01-01-1999,13:00,20,R,ugm-3 (GRAV EQ),49,R,ugm-3,32,R,ugm-3,107,R,ugm-3
01-01-1999,14:00,18,R,ugm-3 (GRAV EQ),59,R,ugm-3,34,R,ugm-3,124,R,ugm-3
01-01-1999,15:00,22,R,ugm-3 (GRAV EQ),73,R,ugm-3,34,R,ugm-3,145,R,ugm-3
01-01-1999,16:00,21,R,ugm-3 (GRAV EQ),85,R,ugm-3,42,R,ugm-3,172,R,ugm-3
01-01-1999,17:00,21,R,ugm-3 (GRAV EQ),81,R,ugm-3,42,R,ugm-3,166,R,ugm-3
01-01-1999,18:00,23,R,ugm-3 (GRAV EQ),86,R,ugm-3,48,R,ugm-3,180,R,ugm-3
01-01-1999,19:00,25,R,ugm-3 (GRAV EQ),80,R,ugm-3,48,R,ugm-3,170,R,ugm-3
01-01-1999,20:00,25,R,ugm-3 (GRAV EQ),90,R,ugm-3,53,R,ugm-3,191,R,ugm-3
01-01-1999,21:00,22,R,ugm-3 (GRAV EQ),61,R,ugm-3,50,R,ugm-3,143,R,ugm-3
01-01-1999,22:00,21,R,ugm-3 (GRAV EQ),58,R,ugm-3,44,R,ugm-3,132,R,ugm-3
01-01-1999,23:00,20,R,ugm-3 (GRAV EQ),48,R,ugm-3,42,R,ugm-3,115,R,ugm-3
01-01-1999,24:00,18,R,ugm-3 (GRAV EQ),33,R,ugm-3,34,R,ugm-3,84,R,ugm-3
02-01-1999,01:00,16,R,ugm-3 (GRAV EQ),18,R,ugm-3,25,R,ugm-3,52,R,ugm-3
02-01-1999,02:00,14,R,ugm-3 (GRAV EQ),11,R,ugm-3,17,R,ugm-3,34,R,ugm-3
02-01-1999,03:00,10,R,ugm-3 (GRAV EQ),9,R,ugm-3,13,R,ugm-3,27,R,ugm-3
02-01-1999,04:00,4,R,ugm-3 (GRAV EQ),6,R,ugm-3,11,R,ugm-3,21,R,ugm-3
02-01-1999,05:00,10,R,ugm-3 (GRAV EQ),5,R,ugm-3,13,R,ugm-3,21,R,ugm-3
02-01-1999,06:00,16,R,ugm-3 (GRAV EQ),6,R,ugm-3,15,R,ugm-3,25,R,ugm-3
02-01-1999,07:00,18,R,ugm-3 (GRAV EQ),13,R,ugm-3,27,R,ugm-3,46,R,ugm-3
02-01-1999,08:00,10,R,ugm-3 (GRAV EQ),25,R,ugm-3,40,R,ugm-3,78,R,ugm-3
02-01-1999,09:00,14,R,ugm-3 (GRAV EQ),48,R,ugm-3,63,R,ugm-3,136,R,ugm-3
02-01-1999,10:00,26,R,ugm-3 (GRAV EQ),59,R,ugm-3,63,R,ugm-3,153,R,ugm-3
02-01-1999,11:00,38,R,ugm-3 (GRAV EQ),55,R,ugm-3,57,R,ugm-3,141,R,ugm-3
02-01-1999,12:00,44,R,ugm-3 (GRAV EQ),46,R,ugm-3,50,R,ugm-3,120,R,ugm-3
02-01-1999,13:00,43,R,ugm-3 (GRAV EQ),45,R,ugm-3,48,R,ugm-3,117,R,ugm-3
02-01-1999,14:00,21,R,ugm-3 (GRAV EQ),45,R,ugm-3,50,R,ugm-3,118,R,ugm-3
02-01-1999,15:00,21,R,ugm-3 (GRAV EQ),61,R,ugm-3,61,R,ugm-3,155,R,ugm-3
02-01-1999,16:00,29,R,ugm-3 (GRAV EQ),74,R,ugm-3,69,R,ugm-3,181,R,ugm-3
02-01-1999,17:00,26,R,ugm-3 (GRAV EQ),113,R,ugm-3,86,R,ugm-3,258,R,ugm-3
02-01-1999,18:00,34,R,ugm-3 (GRAV EQ),125,R,ugm-3,84,R,ugm-3,275,R,ugm-3
02-01-1999,19:00,21,R,ugm-3 (GRAV EQ),76,R,ugm-3,74,R,ugm-3,191,R,ugm-3
02-01-1999,20:00,23,R,ugm-3 (GRAV EQ),100,R,ugm-3,90,R,ugm-3,243,R,ugm-3
02-01-1999,21:00,22,R,ugm-3 (GRAV EQ),76,R,ugm-3,84,R,ugm-3,201,R,ugm-3
02-01-1999,22:00,17,R,ugm-3 (GRAV EQ),40,R,ugm-3,61,R,ugm-3,122,R,ugm-3
02-01-1999,23:00,17,R,ugm-3 (GRAV EQ),45,R,ugm-3,61,R,ugm-3,130,R,ugm-3
02-01-1999,24:00,18,R,ugm-3 (GRAV EQ),45,R,ugm-3,59,R,ugm-3,128,R,ugm-3
03-01-1999,01:00,17,R,ugm-3 (GRAV EQ),29,R,ugm-3,48,R,ugm-3,92,R,ugm-3
03-01-1999,02:00,18,R,ugm-3 (GRAV EQ),31,R,ugm-3,42,R,ugm-3,90,R,ugm-3
03-01-1999,03:00,18,R,ugm-3 (GRAV EQ),21,R,ugm-3,29,R,ugm-3,61,R,ugm-3
03-01-1999,04:00,18,R,ugm-3 (GRAV EQ),11,R,ugm-3,25,R,ugm-3,42,R,ugm-3
03-01-1999,05:00,23,R,ugm-3 (GRAV EQ),14,R,ugm-3,27,R,ugm-3,48,R,ugm-3
03-01-1999,06:00,22,R,ugm-3 (GRAV EQ),13,R,ugm-3,31,R,ugm-3,50,R,ugm-3
03-01-1999,07:00,14,R,ugm-3 (GRAV EQ),16,R,ugm-3,38,R,ugm-3,63,R,ugm-3
03-01-1999,08:00,9,R,ugm-3 (GRAV EQ),21,R,ugm-3,40,R,ugm-3,73,R,ugm-3
03-01-1999,09:00,16,R,ugm-3 (GRAV EQ),15,R,ugm-3,38,R,ugm-3,61,R,ugm-3
03-01-1999,10:00,30,R,ugm-3 (GRAV EQ),18,R,ugm-3,40,R,ugm-3,67,R,ugm-3
03-01-1999,11:00,40,R,ugm-3 (GRAV EQ),23,R,ugm-3,42,R,ugm-3,76,R,ugm-3
03-01-1999,12:00,33,R,ugm-3 (GRAV EQ),13,R,ugm-3,29,R,ugm-3,48,R,ugm-3
03-01-1999,13:00,9,R,ugm-3 (GRAV EQ),23,R,ugm-3,27,R,ugm-3,61,R,ugm-3
03-01-1999,14:00,16,R,ugm-3 (GRAV EQ),38,R,ugm-3,36,R,ugm-3,94,R,ugm-3
03-01-1999,15:00,14,R,ugm-3 (GRAV EQ),29,R,ugm-3,34,R,ugm-3,78,R,ugm-3
03-01-1999,16:00,16,R,ugm-3 (GRAV EQ),46,R,ugm-3,55,R,ugm-3,126,R,ugm-3
03-01-1999,17:00,29,R,ugm-3 (GRAV EQ),129,R,ugm-3,88,R,ugm-3,285,R,ugm-3
03-01-1999,18:00,25,R,ugm-3 (GRAV EQ),68,R,ugm-3,76,R,ugm-3,180,R,ugm-3
03-01-1999,19:00,30,R,ugm-3 (GRAV EQ),103,R,ugm-3,82,R,ugm-3,239,R,ugm-3
03-01-1999,20:00,38,R,ugm-3 (GRAV EQ),138,R,ugm-3,82,R,ugm-3,292,R,ugm-3
03-01-1999,21:00,35,R,ugm-3 (GRAV EQ),135,R,ugm-3,80,R,ugm-3,287,R,ugm-3
03-01-1999,22:00,27,R,ugm-3 (GRAV EQ),116,R,ugm-3,76,R,ugm-3,254,R,ugm-3
03-01-1999,23:00,26,R,ugm-3 (GRAV EQ),64,R,ugm-3,44,R,ugm-3,141,R,ugm-3
03-01-1999,24:00,17,R,ugm-3 (GRAV EQ),35,R,ugm-3,31,R,ugm-3,84,R,ugm-3
04-01-1999,01:00,13,R,ugm-3 (GRAV EQ),20,R,ugm-3,25,R,ugm-3,55,R,ugm-3
04-01-1999,02:00,12,R,ugm-3 (GRAV EQ),9,R,ugm-3,19,R,ugm-3,32,R,ugm-3
04-01-1999,03:00,16,R,ugm-3 (GRAV EQ),6,R,ugm-3,17,R,ugm-3,27,R,ugm-3
04-01-1999,04:00,18,R,ugm-3 (GRAV EQ),5,R,ugm-3,13,R,ugm-3,21,R,ugm-3
04-01-1999,05:00,20,R,ugm-3 (GRAV EQ),5,R,ugm-3,13,R,ugm-3,21,R,ugm-3
04-01-1999,06:00,13,R,ugm-3 (GRAV EQ),11,R,ugm-3,21,R,ugm-3,38,R,ugm-3
04-01-1999,07:00,14,R,ugm-3 (GRAV EQ),24,R,ugm-3,34,R,ugm-3,71,R,ugm-3
04-01-1999,08:00,22,R,ugm-3 (GRAV EQ),48,R,ugm-3,52,R,ugm-3,124,R,ugm-3
04-01-1999,09:00,30,R,ugm-3 (GRAV EQ),54,R,ugm-3,57,R,ugm-3,139,R,ugm-3
04-01-1999,10:00,10,R,ugm-3 (GRAV EQ),29,R,ugm-3,53,R,ugm-3,97,R,ugm-3
04-01-1999,11:00,14,R,ugm-3 (GRAV EQ),,,,,,,,,
04-01-1999,12:00,22,R,ugm-3 (GRAV EQ),,,,,,,,,
04-01-1999,13:00,18,R,ugm-3 (GRAV EQ),31,R,ugm-3,42,R,ugm-3,90,R,ugm-3
04-01-1999,14:00,22,R,ugm-3 (GRAV EQ),28,R,ugm-3,44,R,ugm-3,86,R,ugm-3
04-01-1999,15:00,18,R,ugm-3 (GRAV EQ),26,R,ugm-3,46,R,ugm-3,86,R,ugm-3
04-01-1999,16:00,21,R,ugm-3 (GRAV EQ),29,R,ugm-3,52,R,ugm-3,96,R,ugm-3
04-01-1999,17:00,31,R,ugm-3 (GRAV EQ),45,R,ugm-3,73,R,ugm-3,141,R,ugm-3
04-01-1999,18:00,29,R,ugm-3 (GRAV EQ),59,R,ugm-3,76,R,ugm-3,166,R,ugm-3
04-01-1999,19:00,29,R,ugm-3 (GRAV EQ),90,R,ugm-3,84,R,ugm-3,222,R,ugm-3
04-01-1999,20:00,39,R,ugm-3 (GRAV EQ),125,R,ugm-3,82,R,ugm-3,273,R,ugm-3
04-01-1999,21:00,47,R,ugm-3 (GRAV EQ),91,R,ugm-3,71,R,ugm-3,210,R,ugm-3
04-01-1999,22:00,35,R,ugm-3 (GRAV EQ),65,R,ugm-3,65,R,ugm-3,164,R,ugm-3
04-01-1999,23:00,29,R,ugm-3 (GRAV EQ),63,R,ugm-3,59,R,ugm-3,155,R,ugm-3
04-01-1999,24:00,20,R,ugm-3 (GRAV EQ),46,R,ugm-3,53,R,ugm-3,124,R,ugm-3
05-01-1999,01:00,17,R,ugm-3 (GRAV EQ),23,R,ugm-3,29,R,ugm-3,63,R,ugm-3
05-01-1999,02:00,16,R,ugm-3 (GRAV EQ),10,R,ugm-3,15,R,ugm-3,31,R,ugm-3
05-01-1999,03:00,13,R,ugm-3 (GRAV EQ),8,R,ugm-3,11,R,ugm-3,23,R,ugm-3
05-01-1999,04:00,18,R,ugm-3 (GRAV EQ),9,R,ugm-3,13,R,ugm-3,27,R,ugm-3
05-01-1999,05:00,26,R,ugm-3 (GRAV EQ),8,R,ugm-3,15,R,ugm-3,27,R,ugm-3
05-01-1999,06:00,33,R,ugm-3 (GRAV EQ),15,R,ugm-3,25,R,ugm-3,48,R,ugm-3
05-01-1999,07:00,39,R,ugm-3 (GRAV EQ),56,R,ugm-3,52,R,ugm-3,138,R,ugm-3
05-01-1999,08:00,44,R,ugm-3 (GRAV EQ),91,R,ugm-3,69,R,ugm-3,208,R,ugm-3
05-01-1999,09:00,46,R,ugm-3 (GRAV EQ),103,R,ugm-3,73,R,ugm-3,229,R,ugm-3
05-01-1999,10:00,48,R,ugm-3 (GRAV EQ),110,R,ugm-3,74,R,ugm-3,243,R,ugm-3
05-01-1999,11:00,46,R,ugm-3 (GRAV EQ),103,R,ugm-3,71,R,ugm-3,227,R,ugm-3
05-01-1999,12:00,48,R,ugm-3 (GRAV EQ),90,R,ugm-3,67,R,ugm-3,204,R,ugm-3
05-01-1999,13:00,47,R,ugm-3 (GRAV EQ),94,R,ugm-3,69,R,ugm-3,212,R,ugm-3
05-01-1999,14:00,46,R,ugm-3 (GRAV EQ),91,R,ugm-3,67,R,ugm-3,206,R,ugm-3
05-01-1999,15:00,40,R,ugm-3 (GRAV EQ),86,R,ugm-3,59,R,ugm-3,191,R,ugm-3
05-01-1999,16:00,39,R,ugm-3 (GRAV EQ),99,R,ugm-3,71,R,ugm-3,222,R,ugm-3
05-01-1999,17:00,38,R,ugm-3 (GRAV EQ),126,R,ugm-3,78,R,ugm-3,271,R,ugm-3
05-01-1999,18:00,40,R,ugm-3 (GRAV EQ),99,R,ugm-3,71,R,ugm-3,222,R,ugm-3
05-01-1999,19:00,38,R,ugm-3 (GRAV EQ),101,R,ugm-3,71,R,ugm-3,225,R,ugm-3
05-01-1999,20:00,38,R,ugm-3 (GRAV EQ),114,R,ugm-3,71,R,ugm-3,244,R,ugm-3
05-01-1999,21:00,39,R,ugm-3 (GRAV EQ),96,R,ugm-3,65,R,ugm-3,212,R,ugm-3
05-01-1999,22:00,36,R,ugm-3 (GRAV EQ),70,R,ugm-3,57,R,ugm-3,164,R,ugm-3
05-01-1999,23:00,39,R,ugm-3 (GRAV EQ),86,R,ugm-3,59,R,ugm-3,191,R,ugm-3
05-01-1999,24:00,43,R,ugm-3 (GRAV EQ),59,R,ugm-3,53,R,ugm-3,143,R,ugm-3
06-01-1999,01:00,46,R,ugm-3 (GRAV EQ),39,R,ugm-3,44,R,ugm-3,103,R,ugm-3
06-01-1999,02:00,44,R,ugm-3 (GRAV EQ),19,R,ugm-3,32,R,ugm-3,61,R,ugm-3
06-01-1999,03:00,43,R,ugm-3 (GRAV EQ),13,R,ugm-3,27,R,ugm-3,46,R,ugm-3
06-01-1999,04:00,40,R,ugm-3 (GRAV EQ),11,R,ugm-3,23,R,ugm-3,40,R,ugm-3
06-01-1999,05:00,36,R,ugm-3 (GRAV EQ),11,R,ugm-3,25,R,ugm-3,42,R,ugm-3
06-01-1999,06:00,34,R,ugm-3 (GRAV EQ),20,R,ugm-3,32,R,ugm-3,63,R,ugm-3
06-01-1999,07:00,36,R,ugm-3 (GRAV EQ),64,R,ugm-3,55,R,ugm-3,153,R,ugm-3
06-01-1999,08:00,39,R,ugm-3 (GRAV EQ),124,R,ugm-3,80,R,ugm-3,269,R,ugm-3
06-01-1999,09:00,44,R,ugm-3 (GRAV EQ),161,R,ugm-3,90,R,ugm-3,336,R,ugm-3
06-01-1999,10:00,61,R,ugm-3 (GRAV EQ),123,R,ugm-3,78,R,ugm-3,265,R,ugm-3
06-01-1999,11:00,82,R,ugm-3 (GRAV EQ),133,R,ugm-3,80,R,ugm-3,283,R,ugm-3
06-01-1999,12:00,83,R,ugm-3 (GRAV EQ),113,R,ugm-3,71,R,ugm-3,243,R,ugm-3
06-01-1999,13:00,74,R,ugm-3 (GRAV EQ),108,R,ugm-3,65,R,ugm-3,229,R,ugm-3
06-01-1999,14:00,64,R,ugm-3 (GRAV EQ),104,R,ugm-3,67,R,ugm-3,225,R,ugm-3
06-01-1999,15:00,68,R,ugm-3 (GRAV EQ),106,R,ugm-3,73,R,ugm-3,235,R,ugm-3
06-01-1999,16:00,61,R,ugm-3 (GRAV EQ),100,R,ugm-3,65,R,ugm-3,218,R,ugm-3
06-01-1999,17:00,56,R,ugm-3 (GRAV EQ),99,R,ugm-3,67,R,ugm-3,218,R,ugm-3
06-01-1999,18:00,52,R,ugm-3 (GRAV EQ),99,R,ugm-3,67,R,ugm-3,218,R,ugm-3
06-01-1999,19:00,52,R,ugm-3 (GRAV EQ),101,R,ugm-3,67,R,ugm-3,222,R,ugm-3
06-01-1999,20:00,56,R,ugm-3 (GRAV EQ),83,R,ugm-3,59,R,ugm-3,185,R,ugm-3
06-01-1999,21:00,51,R,ugm-3 (GRAV EQ),79,R,ugm-3,61,R,ugm-3,181,R,ugm-3
06-01-1999,22:00,17,R,ugm-3 (GRAV EQ),148,R,ugm-3,59,R,ugm-3,285,R,ugm-3
06-01-1999,23:00,9,R,ugm-3 (GRAV EQ),145,R,ugm-3,69,R,ugm-3,290,R,ugm-3
06-01-1999,24:00,10,R,ugm-3 (GRAV EQ),146,R,ugm-3,78,R,ugm-3,302,R,ugm-3
07-01-1999,01:00,8,R,ugm-3 (GRAV EQ),28,R,ugm-3,46,R,ugm-3,88,R,ugm-3
07-01-1999,02:00,5,R,ugm-3 (GRAV EQ),13,R,ugm-3,42,R,ugm-3,61,R,ugm-3
07-01-1999,03:00,10,R,ugm-3 (GRAV EQ),13,R,ugm-3,50,R,ugm-3,69,R,ugm-3
07-01-1999,04:00,12,R,ugm-3 (GRAV EQ),11,R,ugm-3,44,R,ugm-3,61,R,ugm-3
07-01-1999,05:00,10,R,ugm-3 (GRAV EQ),10,R,ugm-3,42,R,ugm-3,57,R,ugm-3
07-01-1999,06:00,12,R,ugm-3 (GRAV EQ),16,R,ugm-3,48,R,ugm-3,73,R,ugm-3
07-01-1999,07:00,17,R,ugm-3 (GRAV EQ),65,R,ugm-3,73,R,ugm-3,172,R,ugm-3
07-01-1999,08:00,25,R,ugm-3 (GRAV EQ),133,R,ugm-3,90,R,ugm-3,292,R,ugm-3
07-01-1999,09:00,29,R,ugm-3 (GRAV EQ),209,R,ugm-3,97,R,ugm-3,416,R,ugm-3
07-01-1999,10:00,27,R,ugm-3 (GRAV EQ),209,R,ugm-3,97,R,ugm-3,416,R,ugm-3
07-01-1999,11:00,35,R,ugm-3 (GRAV EQ),235,R,ugm-3,99,R,ugm-3,458,R,ugm-3
07-01-1999,12:00,40,R,ugm-3 (GRAV EQ),175,R,ugm-3,94,R,ugm-3,361,R,ugm-3
07-01-1999,13:00,48,R,ugm-3 (GRAV EQ),126,R,ugm-3,82,R,ugm-3,275,R,ugm-3
07-01-1999,14:00,34,R,ugm-3 (GRAV EQ),106,R,ugm-3,74,R,ugm-3,237,R,ugm-3
07-01-1999,15:00,31,R,ugm-3 (GRAV EQ),134,R,ugm-3,84,R,ugm-3,288,R,ugm-3
07-01-1999,16:00,29,R,ugm-3 (GRAV EQ),143,R,ugm-3,94,R,ugm-3,311,R,ugm-3
07-01-1999,17:00,21,R,ugm-3 (GRAV EQ),125,R,ugm-3,82,R,ugm-3,273,R,ugm-3
07-01-1999,18:00,13,R,ugm-3 (GRAV EQ),83,R,ugm-3,69,R,ugm-3,195,R,ugm-3
07-01-1999,19:00,14,R,ugm-3 (GRAV EQ),90,R,ugm-3,61,R,ugm-3,199,R,ugm-3
07-01-1999,20:00,13,R,ugm-3 (GRAV EQ),54,R,ugm-3,48,R,ugm-3,130,R,ugm-3
07-01-1999,21:00,5,R,ugm-3 (GRAV EQ),29,R,ugm-3,44,R,ugm-3,88,R,ugm-3
07-01-1999,22:00,14,R,ugm-3 (GRAV EQ),23,R,ugm-3,46,R,ugm-3,80,R,ugm-3
07-01-1999,23:00,12,R,ugm-3 (GRAV EQ),24,R,ugm-3,50,R,ugm-3,86,R,ugm-3
07-01-1999,24:00,14,R,ugm-3 (GRAV EQ),29,R,ugm-3,50,R,ugm-3,94,R,ugm-3
08-01-1999,01:00,16,R,ugm-3 (GRAV EQ),15,R,ugm-3,42,R,ugm-3,65,R,ugm-3
08-01-1999,02:00,12,R,ugm-3 (GRAV EQ),9,R,ugm-3,32,R,ugm-3,46,R,ugm-3
08-01-1999,03:00,12,R,ugm-3 (GRAV EQ),5,R,ugm-3,29,R,ugm-3,36,R,ugm-3
08-01-1999,04:00,17,R,ugm-3 (GRAV EQ),5,R,ugm-3,31,R,ugm-3,38,R,ugm-3
08-01-1999,05:00,18,R,ugm-3 (GRAV EQ),5,R,ugm-3,34,R,ugm-3,42,R,ugm-3
08-01-1999,06:00,18,R,ugm-3 (GRAV EQ),11,R,ugm-3,44,R,ugm-3,61,R,ugm-3
08-01-1999,07:00,20,R,ugm-3 (GRAV EQ),29,R,ugm-3,61,R,ugm-3,105,R,ugm-3
08-01-1999,08:00,22,R,ugm-3 (GRAV EQ),63,R,ugm-3,78,R,ugm-3,174,R,ugm-3
08-01-1999,09:00,26,R,ugm-3 (GRAV EQ),105,R,ugm-3,88,R,ugm-3,248,R,ugm-3
08-01-1999,10:00,30,R,ugm-3 (GRAV EQ),145,R,ugm-3,90,R,ugm-3,311,R,ugm-3
08-01-1999,11:00,36,R,ugm-3 (GRAV EQ),135,R,ugm-3,88,R,ugm-3,294,R,ugm-3
08-01-1999,12:00,30,R,ugm-3 (GRAV EQ),91,R,ugm-3,76,R,ugm-3,216,R,ugm-3
08-01-1999,13:00,42,R,ugm-3 (GRAV EQ),144,R,ugm-3,88,R,ugm-3,308,R,ugm-3
08-01-1999,14:00,29,R,ugm-3 (GRAV EQ),95,R,ugm-3,78,R,ugm-3,223,R,ugm-3
08-01-1999,15:00,25,R,ugm-3 (GRAV EQ),275,R,ugm-3,111,R,ugm-3,531,R,ugm-3
08-01-1999,16:00,21,R,ugm-3 (GRAV EQ),149,R,ugm-3,92,R,ugm-3,319,R,ugm-3
08-01-1999,17:00,16,R,ugm-3 (GRAV EQ),131,R,ugm-3,86,R,ugm-3,287,R,ugm-3
08-01-1999,18:00,17,R,ugm-3 (GRAV EQ),85,R,ugm-3,73,R,ugm-3,202,R,ugm-3
08-01-1999,19:00,33,R,ugm-3 (GRAV EQ),430,R,ugm-3,124,R,ugm-3,781,R,ugm-3
08-01-1999,20:00,61,R,ugm-3 (GRAV EQ),503,R,ugm-3,113,R,ugm-3,881,R,ugm-3
08-01-1999,21:00,56,R,ugm-3 (GRAV EQ),348,R,ugm-3,80,R,ugm-3,611,R,ugm-3
08-01-1999,22:00,46,R,ugm-3 (GRAV EQ),303,R,ugm-3,78,R,ugm-3,541,R,ugm-3
08-01-1999,23:00,35,R,ugm-3 (GRAV EQ),235,R,ugm-3,63,R,ugm-3,422,R,ugm-3
08-01-1999,24:00,30,R,ugm-3 (GRAV EQ),173,R,ugm-3,52,R,ugm-3,315,R,ugm-3
09-01-1999,01:00,21,R,ugm-3 (GRAV EQ),130,R,ugm-3,32,R,ugm-3,231,R,ugm-3
09-01-1999,02:00,17,R,ugm-3 (GRAV EQ),111,R,ugm-3,15,R,ugm-3,185,R,ugm-3
09-01-1999,03:00,18,R,ugm-3 (GRAV EQ),69,R,ugm-3,32,R,ugm-3,138,R,ugm-3
09-01-1999,04:00,21,R,ugm-3 (GRAV EQ),63,R,ugm-3,27,R,ugm-3,122,R,ugm-3
09-01-1999,05:00,22,R,ugm-3 (GRAV EQ),46,R,ugm-3,29,R,ugm-3,99,R,ugm-3
09-01-1999,06:00,22,R,ugm-3 (GRAV EQ),61,R,ugm-3,36,R,ugm-3,130,R,ugm-3
09-01-1999,07:00,26,R,ugm-3 (GRAV EQ),109,R,ugm-3,50,R,ugm-3,216,R,ugm-3
09-01-1999,08:00,34,R,ugm-3 (GRAV EQ),179,R,ugm-3,50,R,ugm-3,323,R,ugm-3
09-01-1999,09:00,36,R,ugm-3 (GRAV EQ),234,R,ugm-3,57,R,ugm-3,414,R,ugm-3
09-01-1999,10:00,39,R,ugm-3 (GRAV EQ),349,R,ugm-3,82,R,ugm-3,615,R,ugm-3
09-01-1999,11:00,40,R,ugm-3 (GRAV EQ),341,R,ugm-3,94,R,ugm-3,615,R,ugm-3
09-01-1999,12:00,30,R,ugm-3 (GRAV EQ),351,R,ugm-3,92,R,ugm-3,628,R,ugm-3
09-01-1999,13:00,33,R,ugm-3 (GRAV EQ),344,R,ugm-3,90,R,ugm-3,615,R,ugm-3
09-01-1999,14:00,38,R,ugm-3 (GRAV EQ),351,R,ugm-3,90,R,ugm-3,626,R,ugm-3
09-01-1999,15:00,46,R,ugm-3 (GRAV EQ),413,R,ugm-3,99,R,ugm-3,730,R,ugm-3
09-01-1999,16:00,48,R,ugm-3 (GRAV EQ),414,R,ugm-3,105,R,ugm-3,737,R,ugm-3
09-01-1999,17:00,48,R,ugm-3 (GRAV EQ),399,R,ugm-3,101,R,ugm-3,711,R,ugm-3
09-01-1999,18:00,47,R,ugm-3 (GRAV EQ),443,R,ugm-3,101,R,ugm-3,777,R,ugm-3
09-01-1999,19:00,48,R,ugm-3 (GRAV EQ),481,R,ugm-3,97,R,ugm-3,833,R,ugm-3
09-01-1999,20:00,57,R,ugm-3 (GRAV EQ),464,R,ugm-3,103,R,ugm-3,812,R,ugm-3
09-01-1999,21:00,51,R,ugm-3 (GRAV EQ),389,R,ugm-3,82,R,ugm-3,676,R,ugm-3
09-01-1999,22:00,49,R,ugm-3 (GRAV EQ),359,R,ugm-3,73,R,ugm-3,621,R,ugm-3
09-01-1999,23:00,44,R,ugm-3 (GRAV EQ),330,R,ugm-3,69,R,ugm-3,573,R,ugm-3
09-01-1999,24:00,49,R,ugm-3 (GRAV EQ),288,R,ugm-3,61,R,ugm-3,500,R,ugm-3
10-01-1999,01:00,31,R,ugm-3 (GRAV EQ),203,R,ugm-3,42,R,ugm-3,351,R,ugm-3
10-01-1999,02:00,22,R,ugm-3 (GRAV EQ),224,R,ugm-3,42,R,ugm-3,384,R,ugm-3
10-01-1999,03:00,18,R,ugm-3 (GRAV EQ),,,,,,,,,
10-01-1999,04:00,20,R,ugm-3 (GRAV EQ),,,,,,,,,
10-01-1999,05:00,16,R,ugm-3 (GRAV EQ),51,R,ugm-3,15,R,ugm-3,94,R,ugm-3
10-01-1999,06:00,16,R,ugm-3 (GRAV EQ),70,R,ugm-3,31,R,ugm-3,138,R,ugm-3
10-01-1999,07:00,22,R,ugm-3 (GRAV EQ),50,R,ugm-3,31,R,ugm-3,107,R,ugm-3
10-01-1999,08:00,22,R,ugm-3 (GRAV EQ),133,R,ugm-3,36,R,ugm-3,239,R,ugm-3
10-01-1999,09:00,27,R,ugm-3 (GRAV EQ),223,R,ugm-3,34,R,ugm-3,374,R,ugm-3
10-01-1999,10:00,29,R,ugm-3 (GRAV EQ),158,R,ugm-3,25,R,ugm-3,265,R,ugm-3
10-01-1999,11:00,21,R,ugm-3 (GRAV EQ),214,R,ugm-3,34,R,ugm-3,361,R,ugm-3
10-01-1999,12:00,30,R,ugm-3 (GRAV EQ),286,R,ugm-3,61,R,ugm-3,499,R,ugm-3
10-01-1999,13:00,33,R,ugm-3 (GRAV EQ),328,R,ugm-3,63,R,ugm-3,563,R,ugm-3
10-01-1999,14:00,51,R,ugm-3 (GRAV EQ),340,R,ugm-3,71,R,ugm-3,590,R,ugm-3
10-01-1999,15:00,47,R,ugm-3 (GRAV EQ),346,R,ugm-3,74,R,ugm-3,604,R,ugm-3
10-01-1999,16:00,48,R,ugm-3 (GRAV EQ),424,R,ugm-3,94,R,ugm-3,741,R,ugm-3
10-01-1999,17:00,44,R,ugm-3 (GRAV EQ),413,R,ugm-3,94,R,ugm-3,724,R,ugm-3
10-01-1999,18:00,49,R,ugm-3 (GRAV EQ),434,R,ugm-3,90,R,ugm-3,753,R,ugm-3
10-01-1999,19:00,44,R,ugm-3 (GRAV EQ),436,R,ugm-3,90,R,ugm-3,756,R,ugm-3
10-01-1999,20:00,39,R,ugm-3 (GRAV EQ),365,R,ugm-3,76,R,ugm-3,634,R,ugm-3
10-01-1999,21:00,33,R,ugm-3 (GRAV EQ),263,R,ugm-3,61,R,ugm-3,462,R,ugm-3
10-01-1999,22:00,27,R,ugm-3 (GRAV EQ),226,R,ugm-3,61,R,ugm-3,407,R,ugm-3
10-01-1999,23:00,26,R,ugm-3 (GRAV EQ),209,R,ugm-3,53,R,ugm-3,372,R,ugm-3
10-01-1999,24:00,23,R,ugm-3 (GRAV EQ),154,R,ugm-3,38,R,ugm-3,273,R,ugm-3
11-01-1999,01:00,21,R,ugm-3 (GRAV EQ),,,,,,,,,
11-01-1999,02:00,20,R,ugm-3 (GRAV EQ),,,,,,,,,
11-01-1999,03:00,17,R,ugm-3 (GRAV EQ),34,R,ugm-3,27,R,ugm-3,78,R,ugm-3
11-01-1999,04:00,12,R,ugm-3 (GRAV EQ),31,R,ugm-3,29,R,ugm-3,76,R,ugm-3
11-01-1999,05:00,16,R,ugm-3 (GRAV EQ),33,R,ugm-3,32,R,ugm-3,82,R,ugm-3
11-01-1999,06:00,25,R,ugm-3 (GRAV EQ),114,R,ugm-3,55,R,ugm-3,229,R,ugm-3
11-01-1999,07:00,27,R,ugm-3 (GRAV EQ),241,R,ugm-3,74,R,ugm-3,443,R,ugm-3
11-01-1999,08:00,44,R,ugm-3 (GRAV EQ),394,R,ugm-3,107,R,ugm-3,709,R,ugm-3
11-01-1999,09:00,66,R,ugm-3 (GRAV EQ),513,R,ugm-3,122,R,ugm-3,905,R,ugm-3
11-01-1999,10:00,85,R,ugm-3 (GRAV EQ),500,R,ugm-3,141,R,ugm-3,905,R,ugm-3
11-01-1999,11:00,57,R,ugm-3 (GRAV EQ),460,R,ugm-3,115,R,ugm-3,817,R,ugm-3
11-01-1999,12:00,57,R,ugm-3 (GRAV EQ),395,R,ugm-3,115,R,ugm-3,718,R,ugm-3
11-01-1999,13:00,57,R,ugm-3 (GRAV EQ),384,R,ugm-3,103,R,ugm-3,690,R,ugm-3
11-01-1999,14:00,57,R,ugm-3 (GRAV EQ),408,R,ugm-3,118,R,ugm-3,741,R,ugm-3
11-01-1999,15:00,52,R,ugm-3 (GRAV EQ),353,R,ugm-3,107,R,ugm-3,646,R,ugm-3
11-01-1999,16:00,52,R,ugm-3 (GRAV EQ),353,R,ugm-3,111,R,ugm-3,649,R,ugm-3
11-01-1999,17:00,53,R,ugm-3 (GRAV EQ),380,R,ugm-3,118,R,ugm-3,699,R,ugm-3
11-01-1999,18:00,59,R,ugm-3 (GRAV EQ),396,R,ugm-3,117,R,ugm-3,722,R,ugm-3
11-01-1999,19:00,55,R,ugm-3 (GRAV EQ),314,R,ugm-3,96,R,ugm-3,575,R,ugm-3
11-01-1999,20:00,53,R,ugm-3 (GRAV EQ),344,R,ugm-3,96,R,ugm-3,621,R,ugm-3
11-01-1999,21:00,52,R,ugm-3 (GRAV EQ),401,R,ugm-3,97,R,ugm-3,711,R,ugm-3
11-01-1999,22:00,44,R,ugm-3 (GRAV EQ),360,R,ugm-3,99,R,ugm-3,649,R,ugm-3
11-01-1999,23:00,46,R,ugm-3 (GRAV EQ),410,R,ugm-3,109,R,ugm-3,735,R,ugm-3
11-01-1999,24:00,52,R,ugm-3 (GRAV EQ),376,R,ugm-3,109,R,ugm-3,684,R,ugm-3
12-01-1999,01:00,51,R,ugm-3 (GRAV EQ),236,R,ugm-3,82,R,ugm-3,443,R,ugm-3
12-01-1999,02:00,35,R,ugm-3 (GRAV EQ),156,R,ugm-3,65,R,ugm-3,304,R,ugm-3
12-01-1999,03:00,26,R,ugm-3 (GRAV EQ),111,R,ugm-3,52,R,ugm-3,222,R,ugm-3
12-01-1999,04:00,17,R,ugm-3 (GRAV EQ),75,R,ugm-3,40,R,ugm-3,155,R,ugm-3
12-01-1999,05:00,10,R,ugm-3 (GRAV EQ),64,R,ugm-3,34,R,ugm-3,132,R,ugm-3
12-01-1999,06:00,10,R,ugm-3 (GRAV EQ),83,R,ugm-3,31,R,ugm-3,157,R,ugm-3
12-01-1999,07:00,10,R,ugm-3 (GRAV EQ),146,R,ugm-3,48,R,ugm-3,271,R,ugm-3
12-01-1999,08:00,21,R,ugm-3 (GRAV EQ),210,R,ugm-3,71,R,ugm-3,392,R,ugm-3
12-01-1999,09:00,25,R,ugm-3 (GRAV EQ),155,R,ugm-3,67,R,ugm-3,304,R,ugm-3
12-01-1999,10:00,25,R,ugm-3 (GRAV EQ),153,R,ugm-3,71,R,ugm-3,304,R,ugm-3
12-01-1999,11:00,23,R,ugm-3 (GRAV EQ),141,R,ugm-3,67,R,ugm-3,283,R,ugm-3
12-01-1999,12:00,14,R,ugm-3 (GRAV EQ),99,R,ugm-3,44,R,ugm-3,195,R,ugm-3
12-01-1999,13:00,8,R,ugm-3 (GRAV EQ),88,R,ugm-3,29,R,ugm-3,162,R,ugm-3
12-01-1999,14:00,9,R,ugm-3 (GRAV EQ),111,R,ugm-3,31,R,ugm-3,201,R,ugm-3
12-01-1999,15:00,12,R,ugm-3 (GRAV EQ),124,R,ugm-3,29,R,ugm-3,218,R,ugm-3
12-01-1999,16:00,,,,,,,,,,,,
12-01-1999,17:00,10,R,ugm-3 (GRAV EQ),85,R,ugm-3,42,R,ugm-3,172,R,ugm-3
12-01-1999,18:00,17,R,ugm-3 (GRAV EQ),71,R,ugm-3,46,R,ugm-3,155,R,ugm-3
12-01-1999,19:00,21,R,ugm-3 (GRAV EQ),68,R,ugm-3,46,R,ugm-3,149,R,ugm-3
12-01-1999,20:00,17,R,ugm-3 (GRAV EQ),45,R,ugm-3,46,R,ugm-3,115,R,ugm-3
12-01-1999,21:00,18,R,ugm-3 (GRAV EQ),39,R,ugm-3,50,R,ugm-3,109,R,ugm-3
12-01-1999,22:00,18,R,ugm-3 (GRAV EQ),30,R,ugm-3,46,R,ugm-3,92,R,ugm-3
12-01-1999,23:00,20,R,ugm-3 (GRAV EQ),31,R,ugm-3,44,R,ugm-3,92,R,ugm-3
12-01-1999,24:00,21,R,ugm-3 (GRAV EQ),40,R,ugm-3,55,R,ugm-3,117,R,ugm-3
13-01-1999,01:00,18,R,ugm-3 (GRAV EQ),23,R,ugm-3,42,R,ugm-3,76,R,ugm-3
13-01-1999,02:00,16,R,ugm-3 (GRAV EQ),9,R,ugm-3,32,R,ugm-3,46,R,ugm-3
13-01-1999,03:00,14,R,ugm-3 (GRAV EQ),4,R,ugm-3,21,R,ugm-3,27,R,ugm-3
13-01-1999,04:00,14,R,ugm-3 (GRAV EQ),4,R,ugm-3,17,R,ugm-3,23,R,ugm-3
13-01-1999,05:00,14,R,ugm-3 (GRAV EQ),4,R,ugm-3,23,R,ugm-3,29,R,ugm-3
13-01-1999,06:00,14,R,ugm-3 (GRAV EQ),8,R,ugm-3,34,R,ugm-3,46,R,ugm-3
13-01-1999,07:00,21,R,ugm-3 (GRAV EQ),33,R,ugm-3,74,R,ugm-3,124,R,ugm-3
13-01-1999,08:00,27,R,ugm-3 (GRAV EQ),128,R,ugm-3,105,R,ugm-3,300,R,ugm-3
13-01-1999,09:00,,,,193,R,ugm-3,107,R,ugm-3,401,R,ugm-3
13-01-1999,10:00,,,,180,R,ugm-3,99,R,ugm-3,374,R,ugm-3
13-01-1999,11:00,,,,209,R,ugm-3,103,R,ugm-3,422,R,ugm-3
13-01-1999,12:00,,,,99,R,ugm-3,78,R,ugm-3,229,R,ugm-3
13-01-1999,13:00,29,R,ugm-3 (GRAV EQ),88,R,ugm-3,74,R,ugm-3,208,R,ugm-3
13-01-1999,14:00,42,R,ugm-3 (GRAV EQ),164,R,ugm-3,86,R,ugm-3,336,R,ugm-3
13-01-1999,15:00,31,R,ugm-3 (GRAV EQ),115,R,ugm-3,71,R,ugm-3,246,R,ugm-3
13-01-1999,16:00,25,R,ugm-3 (GRAV EQ),121,R,ugm-3,74,R,ugm-3,260,R,ugm-3
13-01-1999,17:00,29,R,ugm-3 (GRAV EQ),135,R,ugm-3,76,R,ugm-3,283,R,ugm-3
13-01-1999,18:00,25,R,ugm-3 (GRAV EQ),86,R,ugm-3,67,R,ugm-3,199,R,ugm-3
13-01-1999,19:00,23,R,ugm-3 (GRAV EQ),76,R,ugm-3,55,R,ugm-3,172,R,ugm-3
13-01-1999,20:00,21,R,ugm-3 (GRAV EQ),66,R,ugm-3,38,R,ugm-3,139,R,ugm-3
13-01-1999,21:00,22,R,ugm-3 (GRAV EQ),54,R,ugm-3,48,R,ugm-3,130,R,ugm-3
13-01-1999,22:00,26,R,ugm-3 (GRAV EQ),54,R,ugm-3,59,R,ugm-3,141,R,ugm-3
13-01-1999,23:00,27,R,ugm-3 (GRAV EQ),36,R,ugm-3,53,R,ugm-3,109,R,ugm-3
13-01-1999,24:00,29,R,ugm-3 (GRAV EQ),28,R,ugm-3,46,R,ugm-3,88,R,ugm-3
14-01-1999,01:00,31,R,ugm-3 (GRAV EQ),14,R,ugm-3,36,R,ugm-3,57,R,ugm-3
14-01-1999,02:00,31,R,ugm-3 (GRAV EQ),9,R,ugm-3,38,R,ugm-3,52,R,ugm-3
14-01-1999,03:00,33,R,ugm-3 (GRAV EQ),6,R,ugm-3,25,R,ugm-3,34,R,ugm-3
14-01-1999,04:00,35,R,ugm-3 (GRAV EQ),5,R,ugm-3,23,R,ugm-3,31,R,ugm-3
14-01-1999,05:00,35,R,ugm-3 (GRAV EQ),5,R,ugm-3,27,R,ugm-3,34,R,ugm-3
14-01-1999,06:00,31,R,ugm-3 (GRAV EQ),9,R,ugm-3,42,R,ugm-3,55,R,ugm-3
14-01-1999,07:00,21,R,ugm-3 (GRAV EQ),21,R,ugm-3,55,R,ugm-3,88,R,ugm-3
14-01-1999,08:00,23,R,ugm-3 (GRAV EQ),53,R,ugm-3,78,R,ugm-3,159,R,ugm-3
14-01-1999,09:00,38,R,ugm-3 (GRAV EQ),84,R,ugm-3,88,R,ugm-3,216,R,ugm-3
14-01-1999,10:00,40,R,ugm-3 (GRAV EQ),78,R,ugm-3,78,R,ugm-3,197,R,ugm-3
14-01-1999,11:00,46,R,ugm-3 (GRAV EQ),70,R,ugm-3,67,R,ugm-3,174,R,ugm-3
14-01-1999,12:00,49,R,ugm-3 (GRAV EQ),56,R,ugm-3,59,R,ugm-3,145,R,ugm-3
14-01-1999,13:00,47,R,ugm-3 (GRAV EQ),39,R,ugm-3,50,R,ugm-3,109,R,ugm-3
14-01-1999,14:00,31,R,ugm-3 (GRAV EQ),35,R,ugm-3,48,R,ugm-3,101,R,ugm-3
14-01-1999,15:00,40,R,ugm-3 (GRAV EQ),66,R,ugm-3,65,R,ugm-3,166,R,ugm-3
14-01-1999,16:00,43,R,ugm-3 (GRAV EQ),83,R,ugm-3,71,R,ugm-3,197,R,ugm-3
14-01-1999,17:00,35,R,ugm-3 (GRAV EQ),70,R,ugm-3,69,R,ugm-3,176,R,ugm-3
14-01-1999,18:00,33,R,ugm-3 (GRAV EQ),59,R,ugm-3,65,R,ugm-3,155,R,ugm-3
14-01-1999,19:00,29,R,ugm-3 (GRAV EQ),48,R,ugm-3,53,R,ugm-3,126,R,ugm-3